Location: Chochol
(49.7771°N, 14.9780°E)
Time: 07:52:31
(UTC+00:00)

Daily predictions for brighter satellites

Satellite Brightness Start Highest point End
(mag) Time Altitude Azimuth Time Altitude Azimuth Time Altitude Azimuth
IRS-1A Rocket 4.4 18:06:15 10° SSE 18:12:00 76° ENE 18:17:53 10° NNW
Cosmos 1980 Rocket 4.4 18:12:20 10° N 18:14:18 12° NNE 18:16:16 10° NE
SJ-11-01 4.4 18:10:04 10° SSE 18:14:48 87° WSW 18:19:35 10° NNW
ATLAS 2AS CENTAUR R/B 3.0 18:08:48 10° NW 18:16:30 83° SW 18:23:32 10° SE
STARLINK-1192 3.9 18:12:54 10° WNW 18:17:01 62° NNE 18:21:08 10° E
SeaSat 1 2.4 18:13:27 10° NNE 18:18:26 80° ESE 18:23:22 10° SSW
STARLINK-1234 3.0 18:17:13 10° WNW 18:20:20 74° SSW 18:23:27 10° ESE
STARLINK-1209 3.0 18:17:41 10° WNW 18:20:48 70° SSW 18:23:54 10° ESE
STARLINK-1233 2.9 18:18:05 10° WNW 18:21:13 89° SSW 18:24:22 10° ESE
STARLINK-1212 2.9 18:18:32 10° WNW 18:21:41 89° SSW 18:24:49 10° ESE
ATLAS 5 CENTAUR R/B 2.0 18:18:16 10° S 18:22:05 37° ESE 18:26:22 10° NE
STARLINK-1244 3.9 18:17:58 10° WNW 18:22:06 64° NNE 18:26:14 10° E
STARLINK-1105 2.9 18:18:58 10° WNW 18:22:07 88° SSW 18:25:17 10° ESE
STARLINK-1206 2.8 18:19:27 10° WNW 18:22:35 88° SSW 18:25:43 10° ESE
STARLINK-1247 2.8 18:19:55 10° WNW 18:23:03 87° SSW 18:26:10 10° ESE
STARLINK-1227 2.9 18:20:19 10° WNW 18:23:28 87° SSW 18:26:37 10° ESE
STARLINK-1218 2.9 18:20:49 10° WNW 18:23:56 86° SSW 18:27:04 10° ESE
COSMOS 2455 3.0 18:18:11 10° NNW 18:24:13 64° NE 18:30:11 10° SE
STARLINK-1226 2.9 18:21:14 10° WNW 18:24:23 86° SSW 18:27:30 10° ESE
H-2A R/B 2.0 18:19:18 10° SSE 18:24:28 86° ENE 18:29:32 10° NNW
Cosmos 1603 4.2 18:19:05 10° SW 18:24:40 67° WNW 18:30:17 10° NNE
STARLINK-1254 2.9 18:21:40 10° WNW 18:24:50 85° SSW 18:27:57 10° ESE
STARLINK-1215 2.9 18:22:10 10° WNW 18:25:18 85° SSW 18:28:22 10° ESE
STARLINK-1231 2.9 18:22:37 10° WNW 18:25:45 84° SSW 18:28:48 10° ESE
STARLINK-1232 2.9 18:23:31 10° WNW 18:26:40 83° SSW 18:29:41 11° ESE
STARLINK-1138 3.9 18:22:52 10° WNW 18:27:01 66° NNE 18:31:08 10° E
STARLINK-1217 2.9 18:23:58 10° WNW 18:27:06 83° SSW 18:30:07 11° ESE
STARLINK-1208 2.9 18:24:23 10° WNW 18:27:32 82° SSW 18:30:33 11° ESE
Abrixas rocket 2.5 18:24:56 10° W 18:27:48 47° SSW 18:30:32 11° ESE
STARLINK-1229 2.9 18:24:52 10° WNW 18:28:00 82° SSW 18:30:58 11° ESE
STARLINK-1271 2.9 18:25:19 10° WNW 18:28:28 81° SSW 18:31:25 11° ESE
STARLINK-1270 2.9 18:25:47 10° WNW 18:28:55 81° SSW 18:31:51 11° ESE
STARLINK-1154 2.9 18:26:14 10° WNW 18:29:22 80° SSW 18:32:17 11° ESE
STARLINK-1197 2.9 18:27:08 10° WNW 18:30:15 79° SSW 18:33:09 12° ESE
STARLINK-1189 2.9 18:27:34 10° WNW 18:30:42 79° SSW 18:33:34 12° ESE
STARLINK-1198 2.9 18:28:02 10° WNW 18:31:10 78° SSW 18:34:01 12° ESE
STARLINK-1188 2.9 18:28:28 10° WNW 18:31:35 78° SSW 18:34:26 12° ESE
Cosmos 1140 Rocket 3.8 18:26:56 10° S 18:31:48 43° ESE 18:36:40 10° NE
STARLINK-1143 3.8 18:27:51 10° WNW 18:32:00 68° NNE 18:36:00 11° E
STARLINK-1235 3.1 18:29:08 10° WNW 18:32:16 65° SSW 18:35:09 12° SE
STARLINK-1187 3.0 18:29:32 10° WNW 18:32:42 71° SSW 18:35:33 12° ESE
STARLINK-1199 2.9 18:30:25 10° WNW 18:33:34 76° SSW 18:36:21 13° ESE
Ariane Rocket 3.3 18:28:42 10° S 18:33:45 71° WSW 18:38:50 10° NNW
STARLINK-1191 2.9 18:30:52 10° WNW 18:34:00 75° SSW 18:36:47 13° ESE
STARLINK-1210 2.9 18:31:20 10° WNW 18:34:28 75° SSW 18:37:13 13° ESE
STARLINK-1221 2.9 18:31:46 10° WNW 18:34:55 74° SSW 18:37:40 13° ESE
STARLINK-1219 2.9 18:32:13 10° WNW 18:35:22 74° SSW 18:38:06 13° ESE
STARLINK-1222 2.9 18:32:40 10° WNW 18:35:48 74° SSW 18:38:31 13° ESE
STARLINK-1211 2.9 18:33:09 10° WNW 18:36:16 73° SSW 18:38:58 13° ESE
STARLINK-1214 3.0 18:33:35 10° WNW 18:36:43 73° SSW 18:39:24 13° ESE
STARLINK-1241 3.8 18:32:52 10° WNW 18:37:01 71° NNE 18:40:49 12° E
STARLINK-1245 2.9 18:34:03 10° WNW 18:37:10 72° SSW 18:39:48 14° ESE
STARLINK-1238 3.0 18:34:28 10° WNW 18:37:37 72° SSW 18:40:15 14° ESE
STARLINK-1205 3.0 18:35:25 10° WNW 18:38:31 70° SSW 18:41:07 14° ESE
ERBS 3.0 18:35:15 10° NW 18:38:32 45° NNE 18:41:22 13° E
STARLINK-1204 3.0 18:35:52 10° WNW 18:38:58 70° SSW 18:41:33 14° ESE
Meteor 1-16 Rocket 4.3 18:33:44 10° SSW 18:39:12 83° WNW 18:44:52 10° N
CZ-2C R/B 3.0 18:34:30 10° S 18:39:20 78° WSW 18:44:07 10° NNW
Cosmos 614 Rocket 3.9 18:34:25 10° SSW 18:39:38 78° ESE 18:44:52 10° NNE
STARLINK-1239 3.7 18:37:50 10° WNW 18:42:00 73° NNE 18:45:35 13° ESE
ATLAS CENTAUR R/B 3.5 18:40:12 10° NNW 18:42:41 16° NNE 18:45:05 10° ENE
MONITOR-E 4.3 18:40:08 10° S 18:42:44 59° WSW 18:45:21 10° NNW
STARLINK-29 3.4 18:41:09 10° SW 18:44:11 41° SSE 18:47:14 10° ENE
Cosmos 1190 Rocket 4.0 18:40:27 10° S 18:45:41 64° ESE 18:50:55 10° NNE
SJ-6B 3.0 18:41:43 10° SSE 18:45:51 83° WSW 18:50:01 10° NNW
Resurs 1-3 3.8 18:42:00 10° SSE 18:46:15 53° ENE 18:50:33 10° N
Aureole 1 Rocket 4.0 18:39:37 10° SSW 18:46:53 79° ESE 18:52:29 10° NNE
STARLINK-1240 3.7 18:42:49 10° WNW 18:46:59 76° NNE 18:50:22 15° ESE
Cosmos 1300 3.5 18:44:22 10° SSE 18:47:45 31° E 18:51:11 10° NNE
BREEZE-M DEB (TANK) 4.1 18:42:02 10° WNW 18:48:32 53° SSW 18:50:46 16° SE
SL-24 R/B 3.9 18:47:17 10° NNE 18:51:14 52° E 18:54:52 10° S
STARLINK-60 2.9 18:48:27 10° WSW 18:51:44 84° SSE 18:55:02 10° ENE
STARLINK-1216 3.6 18:47:47 10° WNW 18:51:57 79° NNE 18:55:08 17° ESE
Terra 4.0 18:52:19 10° ENE 18:53:20 11° NE 18:54:20 10° NE
CZ-2C R/B 3.8 18:49:26 10° NNE 18:54:04 57° E 18:58:36 10° S
STARLINK-1237 3.6 18:52:45 10° WNW 18:56:55 82° NNE 18:59:54 18° ESE
Cosmos 2058 Rocket 3.0 18:55:40 10° S 19:00:10 80° E 19:04:42 10° NNE
STARLINK-1202 3.6 18:57:45 10° WNW 19:01:55 86° NNE 19:04:42 20° ESE
Cosmos 1726 Rocket 4.1 18:58:29 10° SSW 19:02:52 65° WNW 19:07:20 10° N
SL-08 RB Rocket 4.0 18:58:20 10° S 19:02:53 69° WSW 19:07:31 10° NNW
Cosmos 1461 4.1 18:59:05 10° NW 19:03:25 44° WSW 19:07:50 10° SSE
STARLINK-1228 4.0 19:01:17 10° W 19:03:57 31° SW 19:05:31 18° SSE
DMSP B5D2-2 4.1 19:00:03 10° NNE 19:05:13 57° E 19:10:22 10° S
Cosmos 921 Rocket 3.2 19:01:20 10° NNW 19:05:30 70° WSW 19:09:40 10° S
Cosmos 2341 Rocket 4.0 18:59:57 10° N 19:06:23 74° E 19:12:46 10° SSE
SL-4 R/B 1.6 19:04:50 10° W 19:08:14 76° NNW 19:10:57 16° ENE
ERS-1 Rocket 4.4 19:07:02 16° E 19:09:24 22° ENE 19:13:14 10° N
CZ-4C R/B 3.8 19:04:14 10° NW 19:10:19 36° NNE 19:16:38 13° E
Cosmos 407 Rocket 3.7 19:06:11 10° SSW 19:11:18 72° WNW 19:16:27 10° NNE
Cosmos 1908 4.3 19:07:35 10° SSW 19:11:20 47° WNW 19:15:08 10° N
Cosmos 1340 Rocket 3.0 19:07:44 10° SSW 19:11:47 74° WNW 19:15:49 10° N
STARLINK-1246 3.6 19:07:42 10° WNW 19:11:52 87° SSW 19:14:15 25° ESE
Cosmos 1408 4.3 19:09:27 10° NNE 19:12:02 18° ENE 19:12:35 17° E
RESURS DK-1 3.7 19:08:50 10° NNW 19:12:26 27° NE 19:14:21 19° E
STARLINK-1201 3.7 19:09:57 10° WNW 19:13:05 43° SSW 19:14:33 25° SSE
Cosmos 2228 4.4 19:09:45 10° SSW 19:13:52 43° WNW 19:18:02 10° N
Cosmos 676 Rocket 3.9 19:09:39 10° S 19:14:53 68° ESE 19:20:06 10° NNE
COSMOS 2406 4.2 19:13:01 19° SE 19:15:09 24° ESE 19:19:38 10° NE
STARLINK-1224 3.6 19:12:43 10° WNW 19:16:53 83° SSW 19:19:04 27° ESE
Cosmos 2218 Rocket 4.1 19:11:26 10° N 19:17:34 58° ENE 19:22:17 18° SSE
STARLINK-1203 3.6 19:14:51 10° WNW 19:19:03 77° SSW 19:21:13 28° SE
Cosmos 2058 3.3 19:15:20 10° N 19:19:19 45° ENE 19:21:10 27° SE
Cosmos 220 Rocket 4.0 19:15:18 10° NNW 19:19:39 72° ENE 19:22:12 24° SE
MetOp-A 4.4 19:14:27 10° S 19:19:48 70° WSW 19:25:11 10° NNW
Resurs 01 Rocket 1.5 19:17:44 17° SSE 19:21:09 82° ENE 19:25:35 10° NNW
MOS 1 Rocket 3.6 19:16:23 10° NNE 19:21:49 74° ESE 19:27:15 10° S
STARLINK-1225 3.6 19:17:42 10° WNW 19:21:52 79° SSW 19:23:51 30° ESE
CZ-2C R/B 2.5 19:17:57 10° NNE 19:23:08 69° ESE 19:28:20 10° S
STARLINK-52 2.8 19:21:19 10° WSW 19:24:31 72° SSE 19:25:57 30° ENE
STARLINK-1230 3.6 19:22:40 10° WNW 19:26:49 75° SSW 19:28:37 32° SE
BREEZE M DEB (TANK) 3.4 19:23:46 10° SSW 19:27:07 43° SE 19:36:10 10° ENE
Cosmos 1812 Rocket 3.8 19:25:20 23° SSE 19:27:39 46° E 19:31:49 10° NNE
SPOT 3 Rocket 4.2 19:23:50 10° S 19:28:56 55° W 19:34:03 10° NNW
SL-8 Rocket 4.0 19:23:33 10° N 19:29:55 81° E 19:35:13 15° SSE
Cosmos 1697 Rocket 3.6 19:24:43 10° NNW 19:29:58 36° NE 19:32:44 23° E
Cosmos 2151 4.0 19:26:35 10° N 19:30:13 27° ENE 19:30:59 26° E
Cosmos 864 Rocket 4.5 19:25:18 10° N 19:31:30 66° ENE 19:35:37 22° SSE
STARLINK-1243 3.6 19:27:38 10° WNW 19:31:47 70° SSW 19:33:24 35° SE
FALCON 9 DEB 3.0 19:29:22 10° WSW 19:32:52 82° SSE 19:34:33 29° ENE
Iridium 2 3.6 19:33:27 27° S 19:35:24 69° E 19:39:14 10° N
Cosmos 2181 Rocket 3.9 19:30:07 10° S 19:36:19 74° E 19:42:29 10° NNE
Cosmos 1954 Rocket 4.0 19:31:15 10° SSW 19:36:30 86° WNW 19:41:45 10° NNE
STARLINK-1236 3.7 19:32:37 10° WNW 19:36:45 66° SSW 19:38:11 38° SE
Cosmos 2366 rocket 3.9 19:37:51 10° N 19:44:02 82° E 19:48:11 22° SSE
Cosmos 1076 Rocket 3.4 19:40:09 10° N 19:44:27 85° E 19:46:20 33° SSE
Cosmos 1741 Rocket 4.2 19:41:05 20° S 19:44:29 48° ESE 19:49:36 10° NNE
Meteor 2-1 Rocket 4.4 19:41:06 18° S 19:45:29 60° E 19:51:20 10° NNE
STARLINK-1269 3.8 19:42:35 10° WNW 19:46:41 59° SSW 19:47:44 43° SSE
Landsat 7 3.9 19:46:17 36° SE 19:48:00 59° ENE 19:52:42 10° N
Cosmos 1959 Rocket 4.5 19:41:55 10° N 19:48:17 89° ENE 19:52:35 22° S
Cosmos 1656 3.7 19:43:12 10° NNW 19:48:55 73° ENE 19:51:23 35° SE
Cosmos 1763 Rocket 3.4 19:44:08 10° NNW 19:49:21 79° ENE 19:51:29 36° SSE
SL-16 R/B 4.3 19:47:28 10° N 19:50:53 16° NNE 19:54:18 10° ENE
STARLINK-1200 3.9 19:47:35 10° WNW 19:51:38 55° SSW 19:52:31 45° SSE
SPOT 1/Viking Rocket 3.7 19:50:06 35° SE 19:52:06 59° ENE 19:57:15 10° N
Cosmos 540 Rocket 3.9 19:47:59 10° NNW 19:52:59 46° ENE 19:54:31 35° ESE
Cosmos 2208 Rocket 4.3 19:48:46 10° NNW 19:53:53 52° ENE 19:55:32 38° ESE
Cosmos 1455 3.0 19:56:32 36° ENE 19:56:32 36° ENE 19:59:28 10° NNE
STARLINK-1192 3.9 19:52:34 10° WNW 19:56:36 51° SSW 19:57:18 45° S
Iridium 4 Rocket 2.8 19:53:36 10° N 19:57:49 87° E 19:59:06 44° S
Cosmos 2322 Rocket 4.4 19:54:36 10° N 19:57:51 15° NNE 20:01:06 10° ENE
USA 234 3.5 19:52:17 10° ENE 19:58:25 42° SE 20:04:33 10° SSW
Cosmos 1980 Rocket 3.1 19:54:58 10° NNW 20:00:07 35° NE 20:02:02 28° E
Cosmos 1892 2.7 19:57:26 10° NNW 20:01:21 80° W 20:02:13 52° S
STARLINK-1244 4.0 19:57:39 10° WNW 20:01:40 48° SSW 20:02:10 45° S
Cosmos 1814 Rocket 4.3 19:59:10 10° NNW 20:04:27 56° ENE 20:05:54 42° ESE
Cosmos 1825 2.7 20:02:17 10° N 20:05:39 45° ENE 20:05:39 45° ENE
STARLINK-1138 4.1 20:02:34 10° WNW 20:06:32 45° SW 20:06:52 44° SSW
ATLAS 5 CENTAUR R/B 3.0 20:02:34 10° WSW 20:06:40 40° NW 20:11:21 10° NE
Cosmos-2242 3.2 20:08:42 52° E 20:08:42 52° E 20:12:51 10° NNE
COSMOS 2455 4.4 20:04:40 10° NW 20:09:46 29° WSW 20:13:56 14° SSW
STARLINK-1143 4.2 20:07:33 10° WNW 20:11:29 42° SW 20:11:39 42° SSW
Meteor 2-3 Rocket 4.4 20:06:38 10° N 20:12:00 39° ENE 20:13:03 35° E
Cosmos 1356 Rocket 3.3 20:13:46 66° ESE 20:13:49 66° E 20:18:02 10° NNE
Cosmos 489 Rocket 4.4 20:07:53 10° NNW 20:14:10 87° ENE 20:16:28 42° SSE
ERBS 3.6 20:11:42 10° WNW 20:14:20 31° WSW 20:14:20 31° WSW
STARLINK-1241 4.4 20:12:36 10° WNW 20:16:28 39° SW 20:16:28 39° SW
SAR-Lupe-2 4.4 20:16:36 10° N 20:20:05 49° WNW 20:21:15 34° WSW
STARLINK-29 3.9 20:17:08 10° W 20:19:44 47° WNW 20:19:44 47° WNW
IGS 5A 3.5 20:20:27 59° SSW 20:21:03 70° WSW 20:25:13 10° NNW
Cosmos 2344 4.5 20:12:38 10° NW 20:21:31 62° NE 20:28:34 27° ESE
ATLAS CENTAUR R/B 1.4 20:18:32 10° NW 20:22:10 59° NNE 20:22:10 59° NNE
Spot 2 Rocket 4.1 20:22:15 31° SSW 20:24:26 53° W 20:29:27 10° NNW
Cosmos 1821 Rocket 4.0 20:18:20 10° N 20:24:44 72° ENE 20:26:40 47° SSE
USA 32 3.9 20:19:46 10° N 20:25:02 89° W 20:26:23 52° S
Cosmos 1934 Rocket 4.3 20:19:45 10° N 20:25:47 47° ENE 20:26:56 42° ESE
Cosmos 2360 4.3 20:22:25 10° NNW 20:28:06 64° ENE 20:29:15 52° ESE
STARLINK-60 4.2 20:25:05 10° W 20:27:48 42° NNW 20:27:48 42° NNW
Cosmos 1850 Rocket 4.0 20:24:21 16° SSW 20:28:28 76° WNW 20:33:40 10° NNE
Cosmos 841 Rocket 3.4 20:23:14 10° NNW 20:28:34 88° WSW 20:29:32 60° SSE
Terra 1.9 20:29:53 59° E 20:30:08 60° ENE 20:34:50 10° N
Mayak 0.9 20:27:16 10° NE 20:28:23 15° NE 20:28:23 15° NE
Cosmos 2278 3.8 20:25:48 10° NNW 20:31:27 64° ENE 20:32:29 54° ESE
SPOT 5 2.4 20:31:40 81° E 20:31:42 81° ENE 20:36:03 10° NNW
Cosmos 2082 Rocket 3.2 20:34:09 30° ENE 20:34:09 30° ENE 20:37:40 10° NE
Meteor 2-10 Rocket 3.4 20:33:52 55° S 20:35:06 86° ESE 20:40:37 10° NNE
Cosmos 1833 Rocket 2.6 20:39:01 61° ESE 20:39:01 61° ESE 20:44:36 10° NE
CARTOSAT-1 3.5 20:39:31 79° W 20:39:31 79° W 20:43:52 10° NNW
Cosmos 1605 Rocket 4.4 20:38:12 10° N 20:44:03 43° ENE 20:44:41 42° E
Cosmos 1408 3.8 20:43:48 10° NNW 20:46:56 38° W 20:46:56 38° W
ERS-1 Rocket 3.2 20:47:01 55° SW 20:47:46 63° WSW 20:52:47 10° NNW
SL-4 R/B 3.2 20:44:33 10° WNW 20:46:33 32° WNW 20:46:33 32° WNW
RESURS DK-1 3.3 20:46:41 10° NW 20:50:15 40° W 20:50:15 40° W
Cosmos 1766 Rocket 3.9 20:48:28 10° NNW 20:52:50 62° W 20:52:50 62° W
Okean 3 Rocket 4.2 20:50:07 10° NNW 20:54:25 50° W 20:54:34 50° WSW
BREEZE M DEB (TANK) 4.1 20:50:07 10° W 20:53:25 33° W 20:53:25 33° W
Resurs 01 Rocket 4.3 20:56:17 10° WSW 20:58:14 13° W 21:00:13 10° WNW
COSMOS 2406 3.5 20:54:52 19° SW 20:58:59 65° WNW 21:04:43 10° NNE
CZ-4C R/B 2.8 20:52:41 10° NW 20:59:46 88° NE 21:01:49 55° SE
Cosmos 1500 Rocket 4.5 20:58:48 10° N 21:01:56 41° NNE 21:01:56 41° NNE
Meteor 1-27 4.4 21:05:11 58° ENE 21:05:11 58° ENE 21:10:33 10° NNE
Cosmos 2151 4.3 21:03:47 10° NNW 21:07:32 32° W 21:07:34 32° W
Cosmos 1697 Rocket 3.2 21:08:40 10° NW 21:14:05 48° WSW 21:14:29 47° WSW
Cosmos 2369 4.2 21:08:48 10° NW 21:14:13 48° WSW 21:14:33 48° WSW
Cosmos 1607 4.5 21:28:01 45° ENE 21:28:01 45° ENE 21:32:28 10° NE
SL-16 R/B 2.6 21:30:46 10° NNW 21:36:11 54° NE 21:36:11 54° NE
Cosmos 2360 Rocket 3.5 21:31:54 10° NNW 21:36:50 30° NE 21:37:32 29° ENE
Thor Agena Rocket 4.1 21:32:30 10° NNE 21:36:20 51° NNE 21:36:20 51° NNE
USA 234 3.2 21:35:14 10° ENE 21:41:48 80° NNW 21:48:20 10° WSW
Cosmos 2322 Rocket 2.7 21:37:46 10° NNW 21:43:04 51° NE 21:43:04 51° NE
Cosmos 1980 Rocket 2.8 21:38:55 10° NW 21:43:48 48° W 21:43:48 48° W
Cosmos 2221 3.9 21:46:37 37° N 21:46:37 37° N 21:49:20 10° N
ASTEX 1 4.4 21:50:00 42° WNW 21:50:00 42° WNW 21:54:12 10° NNW
Cosmos 1459 Rocket 4.4 21:45:40 10° N 21:51:40 52° ENE 21:51:40 52° ENE
ATLAS 5 CENTAUR R/B 4.4 21:49:16 10° NW 21:52:40 19° N 21:56:25 10° NE
Cosmos 2333 Rocket 4.1 21:54:16 10° N 21:58:34 22° NE 22:00:27 18° ENE
Cosmos 1727 Rocket 4.0 22:05:51 77° NNE 22:05:51 77° NNE 22:11:46 10° N
Mayak 0.6 22:02:28 10° N 22:04:58 30° NNW 22:04:58 30° NNW
Terra 3.9 22:08:45 19° W 22:08:45 19° W 22:11:44 10° NW
Cosmos 2016 Rocket 4.5 22:05:50 10° N 22:11:42 51° ENE 22:11:42 51° ENE
Cosmos 2082 Rocket 3.0 22:15:56 44° WNW 22:16:33 46° NW 22:22:01 10° NNE
Cosmos 1802 Rocket 4.2 22:12:36 10° N 22:18:13 63° NE 22:18:13 63° NE
Cosmos 2100 Rocket 4.0 22:14:57 10° N 22:20:40 76° N 22:20:40 76° N
Cosmos 1833 Rocket 4.3 22:20:38 21° W 22:23:21 30° NW 22:28:18 10° NNE
Cosmos 968 Rocket 4.3 22:25:40 49° N 22:25:40 49° N 22:29:44 10° NNE
Cosmos 2173 Rocket 4.0 22:20:50 10° N 22:26:16 72° N 22:26:16 72° N
Cosmos 2219 Rocket 3.6 22:29:02 10° NNW 22:33:57 30° NE 22:34:42 29° ENE
ALOS 2 4.4 22:36:50 30° NNW 22:36:50 30° NNW 22:39:07 10° NNW
CZ-4C R/B 4.1 22:41:50 10° WNW 22:46:59 28° WSW 22:46:59 28° WSW
Cosmos 2322 4.3 22:54:19 10° NNW 22:59:15 55° NNE 22:59:15 55° NNE
COSMOS 2428 3.6 22:58:06 10° NNW 23:03:32 42° NE 23:03:37 42° NE
Cosmos 839 Rocket 4.1 23:14:56 73° NE 23:14:56 73° NE 23:21:16 10° NE
SL-16 R/B 3.9 23:15:19 10° NW 23:18:02 23° WNW 23:18:02 23° WNW
Cosmos 2360 Rocket 3.2 23:15:41 10° NW 23:19:17 39° NW 23:19:17 39° NW
CZ-2D R/B 4.3 23:18:28 10° NE 23:21:40 16° E 23:21:40 16° E
USA 234 4.0 23:18:12 10° ENE 23:24:28 50° N 23:30:43 10° W
Cosmos 2322 Rocket 3.9 23:22:14 10° NW 23:24:52 23° WNW 23:24:52 23° WNW
ATLAS 5 CENTAUR R/B 4.4 23:35:10 10° NNW 23:39:08 22° NNE 23:43:34 10° ENE
MOS 1-B Rocket 4.5 23:33:58 10° N 23:40:05 58° WNW 23:40:21 58° WNW
Cosmos 2333 Rocket 2.7 23:38:00 10° NNW 23:42:26 56° NNW 23:42:26 56° NNW
Cosmos 2237 Rocket 3.4 23:39:28 10° NNW 23:44:44 37° NE 23:46:25 31° E
Cosmos 2233 Rocket 4.3 23:42:27 10° NNW 23:47:50 58° NW 23:47:50 58° NW
SL-16 R/B 3.2 23:48:42 42° E 23:49:56 48° ENE 23:55:52 10° N
Cosmos 1680 Rocket 4.4 23:45:40 10° NNW 23:49:10 43° NNW 23:49:10 43° NNW
Lacrosse 5 rocket 4.0 23:54:19 15° NE 23:54:19 15° NE 23:55:01 10° NE
Cosmos 44 Rocket 4.5 23:53:59 38° N 23:53:59 38° N 23:57:18 10° NNE
